User: anonymous   Login
Location: Darlington Observatory
(36.4817°N, 105.8156°W)
Time: 15:19:32
(UTC-06:00)
Language:

Cosmos 2278 Rocket - Orbit

View from above orbital plane
View from above orbital plane
View from above satellite
View from above satellite

Ground track
Ground track

The orbit data is extracted from the following two-line orbital elements,

1 23088U 94023B   14303.12844477  .00000313  00000-0  18751-3 0   608
2 23088 070.9977 139.1140 0001775 150.9734 348.4272 14.14584752 59634
Epoch (UTC): 30 October 2014 03:04:57
Eccentricity: 0.0001775
inclination: 70.9977°
perigee height: 842 km
apogee height: 845 km
right ascension of ascending node: 139.1140°
argument of perigee: 150.9734°
revolutions per day: 14.14584752
mean anomaly at epoch: 348.4272°
orbit number at epoch: 5963

The dashed part of the orbit path shows where the satellite is in the earth's shadow,  

DLR